DW2428 Weather Reports


Display with metric or nautical units.
time (UTC)temp
F
wind
direction
speed
MPH
gust
MPH
rain 1hr
in
rain 24hr
in
rain mn
in
humidity
%
barometer
mb
20260504185748 69 154 2.0 17.0 0.00 0.00 0.00 43 1009.6
20260504185529 69 168 6.0 17.0 0.00 0.00 0.00 42 1009.7
20260504185239 70 184 5.0 12.0 0.00 0.00 0.00 40 1009.6
20260504185026 70 155 5.0 12.0 0.00 0.00 0.00 42 1009.7
20260504184730 70 115 3.0 12.0 0.00 0.00 0.00 40 1009.9
20260504184518 70 289 4.0 12.0 0.00 0.00 0.00 40 1009.7
20260504184230 70 181 3.0 7.0 0.00 0.00 0.00 39 1009.6
20260504184053 70 252 3.0 9.0 0.00 0.00 0.00 40 1009.8
20260504183744 70 190 1.0 9.0 0.00 0.00 0.00 42 1009.8
20260504183531 69 233 2.0 17.0 0.00 0.00 0.00 39 1009.9
20260504183233 69 97 4.0 17.0 0.00 0.00 0.00 40 1009.9
20260504183003 69 206 3.0 17.0 0.00 0.00 0.00 40 1009.9
20260504182728 70 128 5.0 15.0 0.00 0.00 0.00 39 1009.9
20260504182554 69 134 4.0 11.0 0.00 0.00 0.00 38 1010.1
20260504182240 70 318 3.0 15.0 0.00 0.00 0.00 38 1010.0
20260504182042 69 242 3.0 15.0 0.00 0.00 0.00 38 1010.1
20260504181726 70 313 3.0 15.0 0.00 0.00 0.00 40 1010.2
20260504181542 70 167 5.0 14.0 0.00 0.00 0.00 39 1009.9
20260504181225 70 175 3.0 9.0 0.00 0.00 0.00 41 1010.2
20260504181047 70 204 4.0 9.0 0.00 0.00 0.00 40 1010.1
20260504180743 70 194 2.0 17.0 0.00 0.00 0.00 39 1010.2
20260504180527 69 265 3.0 17.0 0.00 0.00 0.00 38 1010.3
20260504180233 69 163 4.0 17.0 0.00 0.00 0.00 42 1010.5
20260504175730 69 147 7.0 17.0 0.00 0.00 0.00 38 1010.4
20260504175548 69 153 6.0 12.0 0.00 0.00 0.00 40 1010.5
20260504175232 69 279 3.0 10.0 0.00 0.00 0.00 36 1010.4
20260504175052 69 294 3.0 10.0 0.00 0.00 0.00 36 1010.6
20260504174752 70 263 3.0 9.0 0.00 0.00 0.00 40 1010.6
20260504174517 69 86 2.0 12.0 0.00 0.00 0.00 41 1010.6
20260504174229 70 131 5.0 12.0 0.00 0.00 0.00 41 1010.6
20260504174057 69 139 3.0 14.0 0.00 0.00 0.00 39 1010.6
20260504173748 70 163 5.0 14.0 0.00 0.00 0.00 39 1010.6
20260504173509 69 186 4.0 14.0 0.00 0.00 0.00 40 1010.6
20260504173226 70 130 3.0 11.0 0.00 0.00 0.00 39 1010.6
20260504173103 70 177 4.0 9.0 0.00 0.00 0.00 40 1010.7
20260504172725 70 126 3.0 7.0 0.00 0.00 0.00 42 1010.7
20260504172544 70 51 2.0 9.0 0.00 0.00 0.00 39 1010.7
20260504172238 70 360 2.0 12.0 0.00 0.00 0.00 38 1010.6
20260504172030 69 244 2.0 12.0 0.00 0.00 0.00 38 1010.7
20260504171724 69 303 3.0 12.0 0.00 0.00 0.00 41 1010.7
20260504171529 69 166 2.0 12.0 0.00 0.00 0.00 40 1010.7
20260504171231 69 44 4.0 12.0 0.00 0.00 0.00 38 1010.6
20260504171002 68 264 2.0 9.0 0.00 0.00 0.00 38 1010.6
20260504170737 69 270 2.0 13.0 0.00 0.00 0.00 38 1010.6
20260504170546 68 256 2.0 13.0 0.00 0.00 0.00 39 1010.6
20260504170257 69 153 6.0 17.0 0.00 0.00 0.00 38 1010.7
20260504160240 68 244 1.0 8.0 0.00 0.00 0.00 42 1011.3
20260504151103 67 98 2.0 4.0 0.00 0.00 0.00 42 1011.9
20260504150759 67 227 1.0 4.0 0.00 0.00 0.00 46 1011.8
20260504150529 66 245 1.0 6.0 0.00 0.00 0.00 42 1012.0
20260504150226 66 262 1.0 11.0 0.00 0.00 0.00 42 1011.8
20260504141227 64 315 2.0 5.0 0.00 0.00 0.00 44 1012.2
20260504141030 64 337 2.0 5.0 0.00 0.00 0.00 43 1012.4
20260504140726 64 355 2.0 5.0 0.00 0.00 0.00 45 1012.3
20260504140511 63 303 3.0 5.0 0.00 0.00 0.00 43 1012.2
20260504140241 64 163 2.0 4.0 0.00 0.00 0.00 43 1012.4
20260504130730 57 228 1.0 6.0 0.00 0.00 0.00 53 1012.9
20260504130520 56 294 1.0 6.0 0.00 0.00 0.00 51 1013.1
20260504130300 57 128 1.0 4.0 0.00 0.00 0.00 53 1012.9
20260504120237 52 27 2.0 4.0 0.00 0.00 0.00 59 1013.3
20260504110558 49 117 0.0 4.0 0.00 0.00 0.00 63 1013.3
20260504110235 49 24 1.0 4.0 0.00 0.00 0.00 64 1013.1
20260504100529 47 159 0.0 1.0 0.00 0.00 0.00 66 1012.9
20260504100225 47 149 0.0 2.0 0.00 0.00 0.00 67 1012.8
20260504081735 45 103 0.0 1.0 0.00 0.00 0.00 71 1012.1
20260504081504 44 103 0.0 2.0 0.00 0.00 0.00 72 1012.3
20260504081232 45 103 0.0 2.0 0.00 0.00 0.00 72 1012.1
20260504081053 44 103 0.0 2.0 0.00 0.00 0.00 73 1012.4
20260504080729 45 103 0.0 2.0 0.00 0.00 0.00 73 1012.2
20260504080541 44 103 0.0 2.0 0.00 0.00 0.00 74 1012.4
20260504080249 45 101 0.0 3.0 0.00 0.00 0.00 73 1012.2
20260504070228 41 144 0.0 0.0 0.00 0.00 0.00 83 1011.8
20260504060245 42 215 0.0 0.0 0.00 0.00 0.00 79 1012.0
20260504060134 42 215 0.0 0.0 0.00 0.00 0.00 78 1012.1
20260504050737 42 215 0.0 0.0 0.00 0.00 0.00 75 1011.8
20260504050551 42 215 0.0 0.0 0.00 0.00 0.00 75 1011.9
20260504050257 42 215 0.0 0.0 0.00 0.00 0.00 75 1011.7
20260504045724 42 215 0.0 0.0 0.00 0.00 0.00 74 1011.8
20260504045519 42 215 0.0 0.0 0.00 0.00 0.00 73 1012.0
20260504045234 42 215 0.0 0.0 0.00 0.00 0.00 74 1011.9
20260504045055 42 215 0.0 0.0 0.00 0.00 0.00 73 1012.0
20260504044751 43 215 0.0 0.0 0.00 0.00 0.00 72 1011.8
20260504044515 42 215 0.0 0.0 0.00 0.00 0.00 72 1012.1
20260504044227 43 215 0.0 0.0 0.00 0.00 0.00 71 1011.9
20260504044103 42 215 0.0 0.0 0.00 0.00 0.00 72 1012.0
20260504043739 43 215 0.0 0.0 0.00 0.00 0.00 70 1011.8
20260504043547 42 215 0.0 0.0 0.00 0.00 0.00 70 1012.1
20260504043226 43 215 0.0 0.0 0.00 0.00 0.00 71 1011.8
20260504043101 42 215 0.0 0.0 0.00 0.00 0.00 70 1012.1
20260504042739 43 215 0.0 0.0 0.00 0.00 0.00 71 1011.8
20260504042536 42 215 0.0 0.0 0.00 0.00 0.00 70 1012.1
20260504042254 43 215 0.0 0.0 0.00 0.00 0.00 70 1011.8
20260504042052 43 215 0.0 0.0 0.00 0.00 0.00 70 1012.1
20260504041731 43 215 0.0 0.0 0.00 0.00 0.00 70 1011.8
20260504041536 43 215 0.0 0.0 0.00 0.00 0.00 69 1012.1
20260504041243 43 215 0.0 0.0 0.00 0.00 0.00 69 1011.8
20260504041007 43 215 0.0 0.0 0.00 0.00 0.00 69 1012.0
20260504040740 43 215 0.0 0.0 0.00 0.00 0.00 70 1011.9
20260504040559 43 215 0.0 0.0 0.00 0.00 0.00 70 1012.0
20260504040237 43 215 0.0 0.0 0.00 0.00 0.00 69 1011.8
20260504040045 43 215 0.0 0.0 0.00 0.00 0.00 69 1011.9
20260504035725 43 215 0.0 0.0 0.00 0.00 0.00 70 1011.7
20260504035512 43 215 0.0 0.0 0.00 0.00 0.00 69 1011.9
20260504035241 43 215 0.0 0.0 0.00 0.00 0.00 69 1011.7
20260504035051 43 215 0.0 0.0 0.00 0.00 0.00 70 1011.9
20260504034731 43 215 0.0 0.0 0.00 0.00 0.00 70 1011.7
20260504034541 43 215 0.0 0.0 0.00 0.00 0.00 71 1011.7
20260504034223 43 215 0.0 0.0 0.00 0.00 0.00 69 1011.6
20260504034029 43 215 0.0 0.0 0.00 0.00 0.00 69 1011.8
20260504033741 43 215 0.0 0.0 0.00 0.00 0.00 70 1011.6
20260504033600 43 215 0.0 0.0 0.00 0.00 0.00 69 1011.8
20260504033232 43 215 0.0 0.0 0.00 0.00 0.00 71 1011.5
20260504033054 43 215 0.0 0.0 0.00 0.00 0.00 70 1011.8
20260504032730 43 215 0.0 0.0 0.00 0.00 0.00 69 1011.6
20260504032532 43 215 0.0 0.0 0.00 0.00 0.00 72 1011.7
20260504032247 44 215 0.0 0.0 0.00 0.00 0.00 70 1011.7
20260504032054 43 215 0.0 0.0 0.00 0.00 0.00 69 1011.8
20260504031741 44 215 0.0 0.0 0.00 0.00 0.00 69 1011.6
20260504031540 43 215 0.0 0.0 0.00 0.00 0.00 71 1011.8
20260504031248 43 215 0.0 0.0 0.00 0.00 0.00 68 1011.6
20260504031022 43 215 0.0 0.0 0.00 0.00 0.00 68 1011.8
20260504030723 44 215 0.0 0.0 0.00 0.00 0.00 70 1011.6
20260504030530 43 215 0.0 0.0 0.00 0.00 0.00 70 1011.9
20260504030242 44 215 0.0 0.0 0.00 0.00 0.00 70 1011.6
20260504030015 43 215 0.0 0.0 0.00 0.00 0.00 71 1011.8
20260504025730 44 215 0.0 0.0 0.00 0.00 0.00 71 1011.6
20260504025551 43 215 0.0 0.0 0.00 0.00 0.00 71 1011.7
20260504025253 44 215 0.0 0.0 0.00 0.00 0.00 69 1011.5
20260504025028 43 215 0.0 0.0 0.00 0.00 0.00 69 1011.7
20260504024734 44 215 0.0 0.0 0.00 0.00 0.00 68 1011.5
20260504024606 43 215 0.0 0.0 0.00 0.00 0.00 70 1011.8
20260504024231 44 215 0.0 0.0 0.00 0.00 0.00 69 1011.6
20260504024053 43 215 0.0 0.0 0.00 0.00 0.00 68 1011.7
20260504023731 44 215 0.0 0.0 0.00 0.00 0.00 68 1011.6
20260504023536 43 215 0.0 0.0 0.00 0.00 0.00 67 1011.8
20260504023229 44 215 0.0 0.0 0.00 0.00 0.00 68 1011.6
20260504023012 43 215 0.0 0.0 0.00 0.00 0.00 68 1011.7
20260504022745 44 215 0.0 0.0 0.00 0.00 0.00 67 1011.5
20260504022537 43 215 0.0 0.0 0.00 0.00 0.00 67 1011.7
20260504022239 44 215 0.0 0.0 0.00 0.00 0.00 67 1011.6
20260504022006 44 215 0.0 0.0 0.00 0.00 0.00 68 1011.7
20260504021754 44 215 0.0 0.0 0.00 0.00 0.00 69 1011.5
20260504021540 44 215 0.0 0.0 0.00 0.00 0.00 69 1011.7
20260504021231 44 215 0.0 0.0 0.00 0.00 0.00 68 1011.5
20260504021032 44 215 0.0 0.0 0.00 0.00 0.00 69 1011.7
20260504020747 44 215 0.0 0.0 0.00 0.00 0.00 68 1011.5
20260504020548 44 215 0.0 0.0 0.00 0.00 0.00 68 1011.5
20260504020222 44 215 0.0 0.0 0.00 0.00 0.00 68 1011.4
20260504020029 44 215 0.0 0.0 0.00 0.00 0.00 68 1011.6
20260504015738 44 215 0.0 0.0 0.00 0.00 0.00 67 1011.3
20260504015524 44 215 0.0 0.0 0.00 0.00 0.00 67 1011.5
20260504015234 45 215 0.0 0.0 0.00 0.00 0.00 67 1011.3
20260504015104 44 215 0.0 0.0 0.00 0.00 0.00 67 1011.4
20260504014753 45 215 0.0 0.0 0.00 0.00 0.00 67 1011.3
20260504014545 44 215 0.0 0.0 0.00 0.00 0.00 67 1011.5
20260504014229 45 215 0.0 0.0 0.00 0.00 0.00 67 1011.4
20260504014009 45 215 0.0 0.0 0.00 0.00 0.00 67 1011.5
20260504013727 45 215 0.0 0.0 0.00 0.00 0.00 66 1011.3
20260504013559 45 215 0.0 0.0 0.00 0.00 0.00 68 1011.5
20260504013225 45 215 0.0 0.0 0.00 0.00 0.00 66 1011.3
20260504013047 45 215 0.0 0.0 0.00 0.00 0.00 67 1011.4
20260504012738 45 215 0.0 0.0 0.00 0.00 0.00 66 1011.2
20260504012533 45 215 0.0 0.0 0.00 0.00 0.00 66 1011.3
20260504012235 46 215 0.0 0.0 0.00 0.00 0.00 64 1011.2
20260504012112 45 215 0.0 0.0 0.00 0.00 0.00 65 1011.4
20260504011751 46 215 0.0 0.0 0.00 0.00 0.00 66 1011.2
20260504011533 45 215 0.0 0.0 0.00 0.00 0.00 66 1011.3
20260504011228 46 215 0.0 2.0 0.00 0.00 0.00 66 1011.0
20260504011010 45 215 0.0 2.0 0.00 0.00 0.00 67 1011.2
20260504010724 46 215 0.0 2.0 0.00 0.00 0.00 65 1011.0
20260504010557 46 215 0.0 2.0 0.00 0.00 0.00 65 1011.1
20260504010235 46 321 0.0 2.0 0.00 0.00 0.00 64 1010.9
20260504010051 46 321 0.0 2.0 0.00 0.00 0.00 64 1010.9
20260504005734 46 321 0.0 2.0 0.00 0.00 0.00 64 1010.8
20260504005528 46 321 1.0 2.0 0.00 0.00 0.00 64 1010.9
20260504005229 47 321 1.0 2.0 0.00 0.00 0.00 63 1010.7
20260504005004 46 321 0.0 0.0 0.00 0.00 0.00 62 1010.8
20260504004727 47 321 0.0 0.0 0.00 0.00 0.00 61 1010.7
20260504004552 46 321 0.0 0.0 0.00 0.00 0.00 60 1010.8
20260504004223 47 321 0.0 0.0 0.00 0.00 0.00 61 1010.6
20260504004038 47 321 0.0 0.0 0.00 0.00 0.00 60 1010.7
20260504003728 47 321 0.0 0.0 0.00 0.00 0.00 61 1010.4
20260504003539 47 321 0.0 0.0 0.00 0.00 0.00 61 1010.5
20260504003232 48 321 0.0 0.0 0.00 0.00 0.00 59 1010.3
20260504003026 47 321 0.0 0.0 0.00 0.00 0.00 60 1010.4
20260504002731 48 321 0.0 0.0 0.00 0.00 0.00 57 1010.3
20260504002601 48 321 0.0 0.0 0.00 0.00 0.00 59 1010.5
20260504002228 48 321 0.0 0.0 0.00 0.00 0.00 57 1010.3
20260504002046 48 321 0.0 0.0 0.00 0.00 0.00 57 1010.4
20260504001726 49 321 0.0 0.0 0.00 0.00 0.00 59 1010.2
20260504001530 48 321 0.0 0.0 0.00 0.00 0.00 58 1010.3
20260504001223 49 321 0.0 0.0 0.00 0.00 0.00 57 1010.2
20260504001002 49 321 0.0 0.0 0.00 0.00 0.00 56 1010.3
20260504000814 50 321 0.0 0.0 0.00 0.00 0.00 57 1010.1
20260504000529 50 321 0.0 0.0 0.00 0.00 0.00 57 1010.2
20260504000236 51 321 0.0 0.0 0.00 0.00 0.00 53 1010.0
20260504000006 50 321 0.0 0.0 0.00 0.00 0.00 59 1010.1
20260503235733 51 321 0.0 0.0 0.00 0.00 0.00 55 1009.9
20260503235554 51 321 0.0 0.0 0.00 0.00 0.00 53 1010.1
20260503235238 52 321 0.0 0.0 0.00 0.00 0.00 57 1009.9
20260503235032 52 321 0.0 0.0 0.00 0.00 0.00 51 1010.1
20260503234728 53 321 0.0 0.0 0.00 0.00 0.00 47 1009.9
20260503234538 52 321 0.0 0.0 0.00 0.00 0.00 50 1010.1
20260503234227 53 321 0.0 0.0 0.00 0.00 0.00 45 1009.9
20260503234041 53 321 0.0 0.0 0.00 0.00 0.00 46 1010.0
20260503233741 53 321 0.0 0.0 0.00 0.00 0.00 45 1009.8
20260503233541 53 321 0.0 0.0 0.00 0.00 0.00 44 1009.9
20260503233231 54 321 0.0 3.0 0.00 0.00 0.00 43 1009.8
20260503233028 53 321 0.0 3.0 0.00 0.00 0.00 43 1009.9
20260503232738 54 327 0.0 3.0 0.00 0.00 0.00 43 1009.8
20260503232559 53 327 0.0 3.0 0.00 0.00 0.00 43 1009.9
20260503232227 54 326 1.0 3.0 0.00 0.00 0.00 42 1009.8
20260503232102 54 327 1.0 3.0 0.00 0.00 0.00 41 1009.8
20260503231725 54 321 1.0 4.0 0.00 0.00 0.00 41 1009.8
20260503231603 54 323 0.0 5.0 0.00 0.00 0.00 42 1009.9
20260503231232 54 321 1.0 5.0 0.00 0.00 0.00 42 1009.6
20260503231048 54 327 1.0 5.0 0.00 0.00 0.00 41 1009.8
20260503230733 54 315 3.0 6.0 0.00 0.00 0.00 38 1009.6
20260503230555 54 317 1.0 6.0 0.00 0.00 0.00 42 1009.8
20260503230300 55 309 1.0 6.0 0.00 0.00 0.00 40 1009.6
20260503230006 54 323 2.0 5.0 0.00 0.00 0.00 41 1009.8
20260503225727 55 312 1.0 7.0 0.00 0.00 0.00 41 1009.5
20260503225506 54 325 2.0 7.0 0.00 0.00 0.00 40 1009.6
20260503225223 55 327 2.0 7.0 0.00 0.00 0.00 40 1009.6
20260503225016 54 301 3.0 8.0 0.00 0.00 0.00 39 1009.6
20260503224722 55 288 3.0 8.0 0.00 0.00 0.00 40 1009.4
20260503224517 54 335 4.0 8.0 0.00 0.00 0.00 40 1009.6
20260503224234 55 328 4.0 8.0 0.00 0.00 0.00 39 1009.4
20260503224055 54 323 1.0 5.0 0.00 0.00 0.00 41 1009.5
20260503223728 55 336 2.0 6.0 0.00 0.00 0.00 43 1009.5
20260503223543 54 346 1.0 6.0 0.00 0.00 0.00 41 1009.5
20260503223224 55 301 2.0 10.0 0.00 0.00 0.00 40 1009.4
20260503223026 54 308 2.0 10.0 0.00 0.00 0.00 40 1009.4
20260503222741 55 308 3.0 10.0 0.00 0.00 0.00 38 1009.4
20260503222605 54 322 4.0 10.0 0.00 0.00 0.00 39 1009.4
20260503222246 55 321 3.0 10.0 0.00 0.00 0.00 40 1009.4
20260503222045 54 311 2.0 10.0 0.00 0.00 0.00 40 1009.5
20260503221804 55 336 3.0 10.0 0.00 0.00 0.00 43 1009.3
20260503221607 54 299 2.0 6.0 0.00 0.00 0.00 40 1009.4
20260503221258 55 338 2.0 6.0 0.00 0.00 0.00 40 1009.3
20260503221033 54 306 2.0 6.0 0.00 0.00 0.00 39 1009.4
20260503220733 55 336 3.0 7.0 0.00 0.00 0.00 40 1009.4
20260503220609 54 327 3.0 6.0 0.00 0.00 0.00 40 1009.5
20260503220258 55 338 3.0 6.0 0.00 0.00 0.00 41 1009.2
20260503220027 54 311 3.0 6.0 0.00 0.00 0.00 41 1009.5
20260503215738 55 329 2.0 8.0 0.00 0.00 0.00 41 1009.4
20260503215610 54 342 3.0 8.0 0.00 0.00 0.00 41 1009.5
20260503215301 55 319 3.0 8.0 0.00 0.00 0.00 40 1009.3
20260503215048 54 42 3.0 8.0 0.00 0.00 0.00 40 1009.4
20260503214732 55 336 4.0 10.0 0.00 0.00 0.00 40 1009.3
20260503214533 54 286 3.0 10.0 0.00 0.00 0.00 41 1009.4
20260503214228 55 322 4.0 10.0 0.00 0.00 0.00 39 1009.3
20260503214007 54 337 2.0 5.0 0.00 0.00 0.00 43 1009.4
20260503213727 55 325 1.0 8.0 0.00 0.00 0.00 42 1009.3
20260503213559 54 296 3.0 8.0 0.00 0.00 0.00 41 1009.4
20260503213224 55 318 3.0 8.0 0.00 0.00 0.00 41 1009.2
20260503213041 54 312 4.0 8.0 0.00 0.00 0.00 40 1009.4
20260503212750 55 290 2.0 8.0 0.00 0.00 0.00 42 1009.4
20260503212521 54 338 2.0 8.0 0.00 0.00 0.00 40 1009.5
20260503212234 55 315 3.0 9.0 0.00 0.00 0.00 41 1009.4
20260503212056 55 313 3.0 9.0 0.00 0.00 0.00 41 1009.5
20260503211731 55 300 5.0 9.0 0.00 0.00 0.00 39 1009.4
20260503211543 55 298 3.0 8.0 0.00 0.00 0.00 42 1009.4
20260503211230 55 317 3.0 7.0 0.00 0.00 0.00 40 1009.2
20260503211015 55 43 2.0 11.0 0.00 0.00 0.00 41 1009.4
20260503210726 55 335 4.0 11.0 0.00 0.00 0.00 39 1009.2
20260503210503 55 355 4.0 11.0 0.00 0.00 0.00 40 1009.3
20260503210243 55 329 6.0 11.0 0.00 0.00 0.00 40 1009.1
20260503210054 55 323 4.0 11.0 0.00 0.00 0.00 41 1009.3
20260503205732 55 327 5.0 11.0 0.00 0.00 0.00 40 1009.1
20260503205534 55 342 3.0 11.0 0.00 0.00 0.00 41 1009.1
20260503205223 55 328 5.0 11.0 0.00 0.00 0.00 42 1009.0
20260503205135 54 318 3.0 9.0 0.00 0.00 0.00 42 1009.1
20260503204750 55 331 4.0 9.0 0.00 0.00 0.00 43 1009.2
20260503204558 54 300 5.0 10.0 0.00 0.00 0.00 41 1009.2
20260503204236 54 312 4.0 10.0 0.00 0.00 0.00 41 1009.0
20260503204020 54 332 5.0 10.0 0.00 0.00 0.00 41 1009.0
20260503203740 54 292 4.0 9.0 0.00 0.00 0.00 41 1008.9
20260503203601 54 348 4.0 9.0 0.00 0.00 0.00 41 1009.1
20260503203241 54 302 4.0 8.0 0.00 0.00 0.00 41 1009.0
20260503203051 54 328 3.0 8.0 0.00 0.00 0.00 42 1009.0
20260503202753 54 345 5.0 8.0 0.00 0.00 0.00 41 1009.0
20260503202604 53 328 3.0 9.0 0.00 0.00 0.00 43 1009.1
20260503202229 54 286 4.0 11.0 0.00 0.00 0.00 43 1009.0
20260503202052 53 321 3.0 11.0 0.00 0.00 0.00 44 1009.1
20260503201727 54 333 4.0 12.0 0.00 0.00 0.00 42 1008.9
20260503201537 53 316 4.0 12.0 0.00 0.00 0.00 40 1009.1
20260503201224 54 333 5.0 12.0 0.00 0.00 0.00 41 1008.9
20260503201010 53 340 5.0 12.0 0.00 0.00 0.00 42 1009.0
20260503200742 54 329 3.0 9.0 0.00 0.00 0.00 41 1008.9
20260503200555 54 313 5.0 9.0 0.00 0.00 0.00 40 1009.0
20260503200238 55 313 4.0 10.0 0.00 0.00 0.00 40 1008.9
20260503200049 55 332 4.0 10.0 0.00 0.00 0.00 40 1009.1
20260503195729 55 321 4.0 10.0 0.00 0.00 0.00 40 1008.9
20260503195533 55 360 4.0 10.0 0.00 0.00 0.00 40 1009.0
20260503195227 55 327 4.0 9.0 0.00 0.00 0.00 42 1008.8
20260503195009 55 340 4.0 9.0 0.00 0.00 0.00 42 1009.0
20260503194744 55 344 4.0 10.0 0.00 0.00 0.00 43 1008.7
20260503194609 55 317 2.0 10.0 0.00 0.00 0.00 40 1008.9
20260503194232 56 317 5.0 10.0 0.00 0.00 0.00 38 1008.8
20260503194036 56 295 4.0 10.0 0.00 0.00 0.00 39 1008.9
20260503193737 56 294 5.0 10.0 0.00 0.00 0.00 41 1008.8
20260503193504 55 306 2.0 10.0 0.00 0.00 0.00 40 1008.9
20260503193224 56 287 6.0 11.0 0.00 0.00 0.00 39 1008.7
20260503193012 55 328 6.0 11.0 0.00 0.00 0.00 40 1008.8
20260503192740 56 306 5.0 11.0 0.00 0.00 0.00 41 1008.6
20260503192557 55 332 4.0 11.0 0.00 0.00 0.00 41 1008.8
20260503192226 56 323 5.0 9.0 0.00 0.00 0.00 41 1008.7
20260503192055 55 340 4.0 9.0 0.00 0.00 0.00 41 1008.8
20260503191733 56 346 4.0 8.0 0.00 0.00 0.00 41 1008.7
20260503191544 56 317 4.0 8.0 0.00 0.00 0.00 39 1008.8
20260503191230 56 315 4.0 8.0 0.00 0.00 0.00 39 1008.6
20260503191031 56 316 3.0 8.0 0.00 0.00 0.00 40 1008.9
20260503190726 56 336 4.0 8.0 0.00 0.00 0.00 39 1008.6
20260503190507 56 327 3.0 9.0 0.00 0.00 0.00 40 1008.7
20260503190239 56 286 3.0 9.0 0.00 0.00 0.00 39 1008.7
20260503190103 56 302 3.0 9.0 0.00 0.00 0.00 40 1008.7